www.pogodaiklimat.ru

Погода и климат >> Архив погоды >> Канада >> Sault Ste Marie


ПОГОДА в Sault Ste Marie

  • Прогноз погоды в Sault Ste Marie
  • Монитор погоды в Sault Ste Marie
  • Климат города

АРХИВ ПОГОДЫ в Sault Ste Marie

Время (UTC), дата Ветер
(напр.,м/с)
 
Видим.   Явления Облачность Т
(С)
Тd
(С)
f
(%)
Тe
(С)
Тes
(С)
Комфортность P
(гПа)
Po
(гПа)
Тmin
(С)
Tmax
(С)
R
(мм)
R24
(мм)
S
(см)
00 7.12 СЗ 6 16 км 9/9 600 м
[]
-8.8 -13.8 67 -17 -17 1025.3 1000.9 -8.8 -2.6 0.0 19
03 7.12 СВ 4 19 км 10/10 600 м
[]
-11.3 -15.6 70 -18 -18 1027.1 1002.6
06 7.12 В 2 19 км 9/9 600 м
[]
-12.0 -16.4 70 -17 -17 1028.5 1003.9 -12.8 -1.7 0.2 201
09 7.12 В 2 4800 м 10/10 600 м
[]
-12.5 -15.3 80 -17 -17 1029.6 1004.9
12 7.12 В 3 12 км 9/9 600 м
[]
-13.4 -15.9 81 -19 -19 1030.3 1005.5 -13.8 -1.7 0.2 20
15 7.12 В 3 30 км 9/9 300 м
[]
-12.3 -15.3 78 -18 -18 1031.0 1006.2
18 7.12 СВ 2 30 км 8/8 1500 м
[]
-8.4 -13.5 67 -13 -12 1029.2 1004.5 -13.8 -8.4 0.0 20
21 7.12 ЮЗ 4 30 км 5/5 1000 м
[]
-6.9 -12.7 63 -13 -13 1028.4 1003.7
00 8.12 З 4 24 км 10/10 600 м
[]
-7.2 -13.3 62 -14 -14 1029.1 1004.4 -13.8 -5.9 0.0 20
03 8.12 ЮЗ 4 24 км 4/4 1000 м
[]
-9.4 -12.9 76 -16 -16 1029.2 1004.5
06 8.12 ЮЗ 4 24 км 8/8 1000 м
[]
-7.2 -11.4 72 -14 -14 1028.8 1004.2 -13.8 -5.9 0.0
09 8.12 ЮЗ 5 16 км 10/10 300 м
[]
-6.0 -8.9 80 -13 -13 1029.3 1004.8
12 8.12 ЮЗ 5 16 км 10/10 600 м
[]
-6.0 -8.8 81 -13 -13 1030.5 1006.0 -9.9 -5.9 0.2 20
15 8.12 ЮЗ 5 16 км 10/10 600 м
[]
-4.6 -7.8 78 -12 -12 1032.0 1007.4
18 8.12 ЮЗ 7 24 км 9/9 300 м
[]
-2.9 -6.8 74 -10 -10 1031.1 1006.6 -9.9 -2.8 0.0 19
21 8.12 З 7 24 км 9/9 600 м
[]
-1.6 -6.2 71 -9 -9 1030.4 1006.0
00 9.12 ЮЗ 7 24 км 10/10 600 м
[]
-2.9 -6.8 74 -10 -10 1030.8 1006.4 -7.5 -1.4 0.0 19
03 9.12 З 4 24 км 3/3 300 м
[]
-4.9 -8.1 78 -11 -11 1029.8 1005.4
06 9.12 ЮЗ 2 24 км 1/1 300 м
[]
-5.8 -7.4 88 -10 -10 1027.5 1003.2 -7.5 -1.4 101
09 9.12 З 5 24 км 8/8 300 м
[]
-5.0 -7.9 80 -12 -12 1026.1 1001.9
12 9.12 ЮЗ 5 16 км 10/10 200 м
[]
-6.4 -8.4 86 -14 -14 1025.2 1000.9 -8.1 -1.4 0.0 19
15 9.12 ЮЗ 2 11 км 10/10 300 м
[]
-5.1 -7.1 86 -9 -9 1024.8 1000.5
18 9.12 ЮЗ 6 11 км 10/10 300 м
[]
-2.5 -5.1 82 -10 -10 1023.4 999.2 -8.1 -2.0 0.0 19
21 9.12 З 6 12 км 10/10 300 м
[]
-1.3 -3.9 82 -8 -8 1023.3 999.1
00 10.12 ЮЗ 5 16 км 10/10 300 м
[]
-1.7 -4.2 83 -8 -8 1024.1 999.9 -8.1 -1.2 0.0 17
03 10.12 ЮЗ 3 19 км 10/10 300 м
[]
-1.4 -3.7 84 -6 -6 1023.5 999.3
06 10.12 ЮЗ 2 16 км 10/10 300 м
[]
-1.7 -3.6 87 -6 -6 1022.7 998.6 -8.1 -1.2 0.0 20
09 10.12 ЮЗ 2 24 км 10/10 300 м
[]
-1.7 -4.4 82 -6 -6 1022.0 997.9
12 10.12 Ю 1 24 км 10/10 600 м
[]
-1.3 -4.6 78 -3 -3 1021.0 997.0 -1.9 -1.2 0.0 17
15 10.12 Ю 3 19 км 8/8 300 м
[]
-1.2 -4.0 81 -6 -5 1020.6 996.6
18 10.12 ЮЗ 3 19 км 9/9 300 м
[]
+0.2 -3.3 77 -4 -4 1018.3 994.4 -2.5 +0.2
21 10.12 Ю 4 19 км 10/10 300 м
[]
+0.4 -2.5 81 -5 -5 1016.3 992.4
00 11.12 ЮЗ 4 19 км 10/10 300 м
[]
+0.7 -2.4 80 -4 -4 1014.9 991.1 -1.8 +0.8 17
03 11.12 ЮЗ 5 24 км 10/10 300 м
[]
+0.5 -2.6 80 -5 -5 1013.5 989.7
06 11.12 ЮЗ 3 19 км 10/10 300 м
[]
-1.5 -4.7 79 -6 -6 1012.5 988.7 -1.8 +1.1 40
09 11.12 З 3 19 км 9/9 300 м
[]
-2.7 -5.2 83 -7 -7 1012.6 988.8
12 11.12 штиль 0 8000 м 10/10 300 м
[]
-3.2 -4.6 90 -4 -4 1013.2 989.4 -3.4 +1.1 0.0 17
15 11.12 В 1 1600 м 5/5 100 м
[]
-2.4 -2.9 96 -5 -4 1014.3 990.5
18 11.12 С 1 16 км 10/10 100 м
[]
-0.9 -1.6 95 -3 -3 1014.6 990.7 -3.4 -0.8 0.2 16
21 11.12 С 3 24 км 9/9 300 м
[]
-0.1 -3.4 78 -4 -4 1016.1 992.2
00 12.12 СЗ 2 24 км 3/3 1000 м
[]
-3.5 -4.5 93 -7 -7 1017.8 993.8 -3.5 +0.2
03 12.12 В 1 30 км 4/0
[]
-8.9 -10.0 92 -11 -11 1018.7 994.5
06 12.12 В 2 24 км 8/8 1000 м
[]
-10.6 -11.9 90 -14 -14 1018.9 994.7 -10.6 +0.2 16
09 12.12 В 2 16 км 5/5 300 м
[]
-7.5 -8.4 93 -12 -12 1018.6 994.5
12 12.12 В 4 24 км 10/10 600 м
[]
-5.4 -6.2 94 -12 -12 1016.9 992.8 -13.1 +0.2 16
15 12.12 В 5 19 км 10/10 200 м
[]
-3.5 -4.9 90 -11 -11 1016.4 992.2
18 12.12 В 6 19 км 10/10 200 м
[]
-2.4 -4.2 87 -9 -9 1014.4 990.3 -13.1 -2.3 0.0 16
21 12.12 В 7 19 км 10/10 200 м
[]
-2.0 -3.7 88 -10 -10 1013.7 989.7
00 13.12 В 5 3200 м 6/6 200 м
[]
-1.1 -2.4 91 -8 -8 1015.0 991.0 -13.1 -1.1 0.2 17
03 13.12 В 5 24 км 10/10 300 м
[]
-1.3 -3.4 86 -8 -8 1015.9 991.9
06 13.12 В 4 24 км 10/10 300 м
[]
-1.1 -3.2 86 -7 -7 1016.9 993.0 -13.1 -1.0 20
09 13.12 В 3 19 км 10/10 200 м
[]
-0.8 -2.8 86 -5 -5 1018.4 994.4
12 13.12 В 3 8000 м 10/10 200 м
[]
-0.9 -1.8 94 -6 -6 1019.7 995.7 -1.5 -1.0 0.2 17
15 13.12 В 4 9000 м 10/10 100 м
[]
-0.4 -1.2 94 -6 -6 1020.8 996.8
18 13.12 В 3 8000 м 10/10 100 м
[]
+0.4 -0.2 96 -4 -4 1020.0 996.1 -2.4 +0.4 0.2 17
21 13.12 ЮВ 2 9000 м 10/10 50 м
[]
+0.6 -0.3 94 -3 -3 1019.9 996.0

 

Местоположение метеостанции Sault Ste Marie (Канада): широта 46.48 долгота -84.50 высота над уровнем моря 192 м.

В архиве по умолчанию представлена погода в Sault Ste Marie за последнюю неделю. Архивные данные за месяц целиком и за предыдущие месяцы, начиная с января 2011 года, Вы можете получить, выбрав интересующий диапазон дат из раскрывающегося списка и нажав кнопку "Ввод!".


*Определитесь, кто Вы:
робот инопланетянин человек

Внимание! Время в таблицах - всемирное. Для получения местного времени необходимо прибавить поправку, которая в Sault Ste Marie равна -5 ч.

Смотрите также архив погоды в соседних городах и на ближайших метеорологических станциях:

Погода в Montreal River Radar (Канада) (87 км)
Погода в Caribou Island (Канада) (138 км)
Погода в Lake Superior Provincial Park (Канада) (139 км)
Погода в Elliott Lake (Канада) (149 км)
Погода в Great Duck Island (Канада) (152 км)
Погода в Gore Bay Airport (Канада) (164 км)
Погода в Wawa (Канада) (167 км)
Погода в Chapleau A (Канада) (173 км)
Погода в Killarney (Канада) (239 км)
Погода в Cove Island (Канада) (250 км)

Пояснения к столбцам:

Ветер - указаны скорость ветра в м/с - средняя за 10 мин, порывы в срок и между сроками (в фигурных скобках) и направление, откуда дует ветер: С - северный, СВ - северо-восточный, В - восточный, ЮВ - юго-восточный, Ю - южный, ЮЗ - юго-западный, З - западный, СЗ - северо-западный.
Видимость - горизонтальная дальность видимости в метрах или километрах. При видимости от 1 до 10 км при отсутствии осадков обычно наблюдается дымка, при ухудшении видимости до 1 км и менее - туман. В сухую погоду видимость может ухудшаться дымом, пылью или мглою.
Явления - указаны атмосферные явления, наблюдавшиеся в срок или в последний час перед сроком; фигурными скобками обозначены явления, наблюдавшиеся между сроками (за 1-3 часа до срока); квадратными скобками обозначены град или гололедные отложения с указанием их диаметра в мм.
Облачность - указаны через наклонную черту общая и нижняя облачность в баллах и высота нижней границы облаков в метрах; квадратными скобками обозначены формы облаков: Ci - перистые, Cs - перисто-слоистые, Cc - перисто-кучевые, Ac - высококучевые, As - высокослоистые, Sc - слоисто-кучевые, Ns - слоисто-дождевые, Cu - кучевые, Cb - кучево-дождевые. Подробнее классификацию облаков см. в Атласе облаков (PDF).
T - Температура воздуха - температура, измеренная на высоте 2 м над землей.
Td - Температура точки росы - температура, при понижении до которой содержащийся в воздухе водяной пар достигнет насыщения.
f - Относительная влажность воздуха - влажноcть воздуха, измеренная на высоте 2 м над землей.
Te - Эффективная температура - температура, которую ощущает одетый по сезону человек в тени. Характеристика душности погоды. При расчете учитывается влияние влажности воздуха и скорости ветра на теплоощущения человека.
Tes - Эффективная температура на солнце - температура, которую ощущает человек, с поправкой на солнечный нагрев. Характеристика знойности погоды. Зависит от высоты солнца над горизонтом, облачности и скорости ветра. Ночью, в пасмурную погоду, а также при ветре 12 м/с и более поправка равна нулю.
P - Атмосферное давление - приведенное к уровню моря атмосферное давление.
Po - Атмосферное давление - измеренное на уровне метеостанции атмосферное давление.
Tmin - Минимальная температура - минимум температуры воздуха на высоте 2 м над землей.
Tmax - Максимальная температура - максимум температуры воздуха на высоте 2 м над землей.
R - Количество осадков - Количество выпавших осадков за период времени, мм. При наведении курсора мыши на число - период времени, за который выпало указанное количество осадков.
R24 - Количество осадков - Количество выпавших осадков за 24 часа, мм.
S - Снежный покров - Высота снежного покрова, см. При наведении курсора мыши на число - состояние снежного покрова и степень покрытия местности в баллах.